This is the latest recevied weather packets stored in our database for station/object KMASWX. If no packets are shown the sender has not sent any weather packets the latest 10 day(s).
| Time | Temp. | Humidity | Pressure | Rain* | Wind** | Luminosity | Snow |
|---|---|---|---|---|---|---|---|
| 1777583873 | 26.11° C | 22% | - | 0 mm | - | - | - |
| 1777583570 | 26.11° C | 22% | - | 0 mm | - | - | - |
| 1777583266 | 26.11° C | 23% | - | 0 mm | - | - | - |
| 1777582958 | 25° C | 23% | - | 0 mm | - | - | - |
| 1777582350 | 23.33° C | 24% | - | 0 mm | - | - | - |
| 1777582047 | 23.89° C | 24% | - | 0 mm | - | - | - |
| 1777581740 | 23.89° C | 25% | - | 0 mm | - | - | - |
| 1777581437 | 24.44° C | 22% | - | 0 mm | - | - | - |
| 1777581133 | 24.44° C | 25% | - | 0 mm | - | - | - |
| 1777580827 | 23.89° C | 24% | - | 0 mm | - | - | - |
| 1777580220 | 23.33° C | 27% | - | 0 mm | - | - | - |
| 1777579912 | 23.33° C | 26% | - | 0 mm | - | - | - |
| 1777579305 | 22.78° C | 29% | - | 0 mm | - | - | - |
| 1777579001 | 22.78° C | 28% | - | 0 mm | - | - | - |
| 1777578696 | 22.78° C | 30% | - | 0 mm | - | - | - |
| 1777578089 | 21.67° C | 33% | - | 0 mm | - | - | - |
| 1777577482 | 21.67° C | 36% | - | 0 mm | - | - | - |
| 1777577178 | 21.67° C | 32% | - | 0 mm | - | - | - |
| 1777576872 | 21.67° C | 35% | - | 0 mm | - | - | - |
| 1777576568 | 20.56° C | 37% | - | 0 mm | - | - | - |
| 1777576265 | 20° C | 36% | - | 0 mm | - | - | - |
| 1777575958 | 20° C | 37% | - | 0 mm | - | - | - |
| 1777575655 | 20° C | 39% | - | 0 mm | - | - | - |
| 1777575351 | 19.44° C | 38% | - | 0 mm | - | - | - |
| 1777575048 | 18.89° C | 38% | - | 0 mm | - | - | - |
* Rain latest 24 hours (hover to see other rain measurements)
** Current wind speed in m/s (hover to see current wind gust speed)